This is the latest recevied weather packets stored in our database for station/object N4RCT. If no packets are shown the sender has not sent any weather packets the latest 10 day(s).
| Time | Temp. | Humidity | Pressure | Rain* | Wind** | Luminosity | Snow |
|---|---|---|---|---|---|---|---|
| 1777926549 | 25° C | 47% | 1013.2 hPa | 0 mm | - | 182 W/m² | - |
| 1777926247 | 25.56° C | 46% | 1013 hPa | 0 mm | - | 132 W/m² | - |
| 1777925943 | 25.56° C | 45% | 1013.3 hPa | 0 mm | - | 142 W/m² | - |
| 1777925641 | 25.56° C | 42% | 1013.2 hPa | 0 mm | - | 150 W/m² | - |
| 1777925338 | 25° C | 47% | 1013.3 hPa | 0 mm | - | 194 W/m² | - |
| 1777925034 | 24.44° C | 53% | 1013.5 hPa | 0 mm | - | 203 W/m² | - |
| 1777924731 | 24.44° C | 50% | 1013.5 hPa | 0 mm | - | 197 W/m² | - |
| 1777924426 | 24.44° C | 49% | 1013.6 hPa | 0 mm | - | 181 W/m² | - |
| 1777924123 | 25° C | 45% | 1013.6 hPa | 0 mm | - | 189 W/m² | - |
| 1777923819 | 25° C | 43% | 1013.5 hPa | 0 mm | - | 281 W/m² | - |
| 1777923515 | 25° C | 46% | 1013.8 hPa | 0 mm | - | 551 W/m² | - |
| 1777923213 | 24.44° C | 45% | 1013.8 hPa | 0 mm | - | 478 W/m² | - |
| 1777922912 | 25° C | 47% | 1013.7 hPa | 0 mm | - | 507 W/m² | - |
| 1777922609 | 25.56° C | 44% | 1014.2 hPa | 0 mm | - | 215 W/m² | - |
| 1777922308 | 26.11° C | 42% | 1014.3 hPa | 0 mm | - | 688 W/m² | - |
| 1777922005 | 25.56° C | 45% | 1014.1 hPa | 0 mm | - | 740 W/m² | - |
| 1777921700 | 25° C | 46% | 1014.2 hPa | 0 mm | - | 741 W/m² | - |
| 1777921396 | 25° C | 46% | 1014.5 hPa | 0 mm | - | 726 W/m² | - |
| 1777921093 | 25° C | 44% | 1014.3 hPa | 0 mm | - | 712 W/m² | - |
| 1777920790 | 25° C | 47% | 1014.6 hPa | 0 mm | - | 730 W/m² | - |
| 1777920486 | 25.56° C | 48% | 1014.8 hPa | 0 mm | - | 757 W/m² | - |
| 1777920182 | 25.56° C | 48% | 1014.7 hPa | 0 mm | - | 741 W/m² | - |
| 1777919878 | 25° C | 50% | 1014.6 hPa | 0 mm | - | 746 W/m² | - |
| 1777919575 | 23.89° C | 48% | 1014.8 hPa | 0 mm | - | 767 W/m² | - |
| 1777919273 | 25° C | 46% | 1014.8 hPa | 0 mm | - | 445 W/m² | - |
* Rain latest hour (hover to see other rain measurements)
** Current wind speed in m/s (hover to see current wind gust speed)